Weather Roundup
Issued by NWS Chicago, IL

Home | Current Version | Previous Version | Graphics & Text | Print | Product List | Glossary On
Versions: 1 2 3 4 5 6 7 8 9 10 11 12 13 14 15 16 17 18 19 20 21 22 23 24 25 26 27 28 29 30 31 32 33 34 35 36 37 38 39 40 41 42 43 44 45 46 47 48 49 50
000
NZUS59 KLOT 191410
HRRLOT

CHICAGO AREA WEATHER ROUNDUP
NATIONAL WEATHER SERVICE CHICAGO/ROMEOVILLE IL
900 AM CDT SAT APR 19 2014

NOTE: "FAIR" INDICATES FEW OR NO CLOUDS BELOW 12,000 FEET WITH NO
SIGNIFICANT WEATHER AND/OR OBSTRUCTIONS TO VISIBILITY.

* THESE STATIONS ARE NOT UNDER NWS QUALITY CONTROL. THEY ALSO MAY NOT
  REPORT WEATHER SUCH AS PRECIPITATION OR FOG.

ILZ005-006-012>014-019>023-191500-
NORTHEAST ILLINOIS

CITY           SKY/WX    TMP DP  RH WIND       PRES   REMARKS
OHARE          MOSUNNY   44  31  60 E10       30.38S
MIDWAY         MOSUNNY   45  35  68 E10       30.38S
AURORA         SUNNY     47  32  56 E13       30.36S
LANSING*       SUNNY     47  36  66 E7        30.38S
JOLIET*        SUNNY     48  35  60 E10       30.37S
WAUKEGAN       SUNNY     38  31  76 E15       30.40R
DUPAGE AIRPORT SUNNY     45  33  63 E8        30.37R
WHEELING       SUNNY     43  32  65 E12       30.40S
KANKAKEE*      SUNNY     47  38  68 E12       30.37S
MORRIS*        SUNNY     49  32  52 E8        30.35F
LEWIS AIRPORT* SUNNY     47  35  63 E10       30.37S
NORTHERLY IS     N/A     41  34  76 E8          N/A
$$

WIZ051-052-058>065-066-070>072-191500-
SOUTHEAST WISCONSIN

CITY           SKY/WX    TMP DP  RH WIND       PRES   REMARKS
MILWAUKEE      MOSUNNY   38  30  73 E12       30.44R
KENOSHA*       SUNNY     40  32  73 E12       30.41R
RACINE*        SUNNY     39  31  72 E13       30.44R
BURLINGTON     SUNNY     39  32  74 E12       30.39F
WAUKESHA       MOSUNNY   37  30  75 E13       30.40F
WEST BEND      SUNNY     37  28  70 E13       30.40F
$$

INZ001>003-010>013-019-020-191500-
NORTHWEST INDIANA

CITY           SKY/WX    TMP DP  RH WIND       PRES   REMARKS
GARY*          SUNNY     46  36  66 CALM      30.39S
MICHIGAN CITY* NOT AVBL
RENSSELAER*    NOT AVBL
VALPARAISO     SUNNY     47  37  68 E13       30.38R
$$

LMZ740>746-191500-
SOUTHERN LAKE MICHIGAN

STATION/POSITION TIME  SKY/WX   TEMP WIND        PRES    VSBY
                                AIR  DIR/SP/G
                 (UTC)          (F)  (DEG/KT/KT) (MB)    (MI)
HARRISON CRIB    1400            38   80/ 14/ 16   N/A
BURNHAM HARBOR   1400            41   60/  9/ 13   N/A
CALUMET HARBOR   1400            40   50/  9/ 11 1029.5F
BURNS HARBOR     NOT AVBL
MICHIGAN CITY    1400            45   90/  7/ 10   N/A
$$

ABBREVIATIONS USED IN REMARKS
   TC - TEMPERATURE IN CELSIUS
  WCI - WIND CHILL INDEX
   HX - HEAT INDEX
  VSB - VISIBILITY
$$


USA.gov is the U.S. government's official web portal to all federal, state and local government web resources and services.